Location: Vancouver
(49.2500°N, 123.1330°W)
Time: 16:38:06
(UTC-07:00)

YAOGAN 6 - Pass Details

Date: 25 February 2018
Orbit: 466 x 508 km, 97.1° (Epoch: 23 June)

Event Time Altitude Azimuth Distance (km) Brightness Sun altitude
Exits shadow 20:45:37 26° 281° (W) 1,009 4.7 -29.0°
Drops below altitude 10° 20:48:10 10° 324° (NW) 1,676 6.0 -29.4°
Sets 20:50:28 0° 338° (NNW) 2,554 6.8 -29.8°
